TimeCDT,TemperatureF,Dew PointF,Humidity,Sea Level PressureIn,VisibilityMPH,Wind Direction,Wind SpeedMPH,Gust SpeedMPH,PrecipitationIn,Events,Conditions,WindDirDegrees,DateUTC
12:15 AM,53.6,53.6,100,29.95,10.0,SSW,6.9,-,N/A,,Overcast,210,2013-03-31 05:15:00
12:41 AM,55.4,53.6,94,29.95,10.0,SW,6.9,-,N/A,,Overcast,220,2013-03-31 05:41:00
12:50 AM,55.4,53.6,94,29.95,10.0,SSW,8.1,-,N/A,,Overcast,210,2013-03-31 05:50:00
12:53 AM,55.0,53.1,93,29.94,10.0,SSW,5.8,-,N/A,,Overcast,210,2013-03-31 05:53:00
1:16 AM,55.4,53.6,94,29.94,10.0,SW,6.9,-,N/A,,Overcast,220,2013-03-31 06:16:00
1:36 AM,55.4,53.6,94,29.93,10.0,SSW,6.9,-,N/A,,Overcast,210,2013-03-31 06:36:00
1:53 AM,55.0,54.0,96,29.94,10.0,SW,9.2,-,N/A,,Overcast,230,2013-03-31 06:53:00
2:07 AM,55.4,53.6,94,29.93,9.0,SW,5.8,-,N/A,,Overcast,230,2013-03-31 07:07:00
2:53 AM,55.0,54.0,96,29.91,6.0,SSW,3.5,-,N/A,,Overcast,200,2013-03-31 07:53:00
3:53 AM,55.0,54.0,96,29.89,4.0,SSW,5.8,-,N/A,,Overcast,210,2013-03-31 08:53:00
4:10 AM,53.6,53.6,100,29.89,2.5,SW,5.8,-,N/A,,Overcast,220,2013-03-31 09:10:00
4:32 AM,55.4,53.6,94,29.89,3.0,SW,4.6,-,N/A,,Overcast,220,2013-03-31 09:32:00
4:39 AM,55.4,53.6,94,29.89,2.0,SSW,5.8,-,N/A,,Overcast,210,2013-03-31 09:39:00
4:53 AM,55.0,54.0,96,29.90,1.8,SW,4.6,-,N/A,,Overcast,220,2013-03-31 09:53:00
5:45 AM,53.6,53.6,100,29.90,2.0,SSW,5.8,-,N/A,,Overcast,200,2013-03-31 10:45:00
5:53 AM,55.0,54.0,96,29.90,2.5,SSW,5.8,-,N/A,,Overcast,200,2013-03-31 10:53:00
6:06 AM,53.6,53.6,100,29.90,1.0,South,3.5,-,N/A,,Overcast,190,2013-03-31 11:06:00
6:14 AM,53.6,53.6,100,29.90,0.8,SSW,5.8,-,N/A,,Mist,200,2013-03-31 11:14:00
6:53 AM,54.0,54.0,100,29.90,0.8,SSW,3.5,-,N/A,,Mist,210,2013-03-31 11:53:00
7:13 AM,55.4,53.6,94,29.92,2.0,SW,4.6,-,N/A,,Overcast,220,2013-03-31 12:13:00
7:33 AM,53.6,53.6,100,29.92,1.2,Calm,Calm,-,N/A,,Overcast,0,2013-03-31 12:33:00
7:45 AM,55.4,53.6,94,29.92,0.8,Calm,Calm,-,N/A,,Overcast,0,2013-03-31 12:45:00
7:53 AM,55.0,54.0,96,29.91,1.0,Calm,Calm,-,N/A,,Overcast,0,2013-03-31 12:53:00
8:00 AM,55.4,55.4,100,29.91,0.5,Calm,Calm,-,N/A,Fog,Fog,0,2013-03-31 13:00:00
8:27 AM,55.4,55.4,100,29.91,1.2,Calm,Calm,-,N/A,,Overcast,0,2013-03-31 13:27:00
8:53 AM,55.9,55.0,97,29.91,1.2,Calm,Calm,-,N/A,,Overcast,0,2013-03-31 13:53:00
9:45 AM,55.4,55.4,100,29.91,0.8,Calm,Calm,-,N/A,,Overcast,0,2013-03-31 14:45:00
9:53 AM,57.0,55.9,96,29.92,1.0,Calm,Calm,-,N/A,,Overcast,0,2013-03-31 14:53:00
10:53 AM,57.0,55.9,96,29.93,2.0,North,4.6,-,0.01,,Overcast,350,2013-03-31 15:53:00
11:24 AM,55.4,55.4,100,29.94,1.8,North,11.5,-,0.00,,Overcast,350,2013-03-31 16:24:00
11:35 AM,55.4,55.4,100,29.94,2.0,North,8.1,-,0.00,,Overcast,360,2013-03-31 16:35:00
11:43 AM,55.4,55.4,100,29.95,1.2,NNW,10.4,-,0.00,,Overcast,340,2013-03-31 16:43:00
11:53 AM,55.9,54.0,93,29.95,1.2,NNW,9.2,-,0.00,Rain,Light Rain,330,2013-03-31 16:53:00
12:30 PM,55.4,53.6,94,29.98,2.5,North,12.7,-,0.10,Rain,Rain,350,2013-03-31 17:30:00
12:37 PM,55.4,53.6,94,29.97,7.0,North,12.7,20.7,0.11,Rain,Light Rain,10,2013-03-31 17:37:00
12:45 PM,55.4,51.8,88,29.96,8.0,NNE,13.8,-,0.11,Rain,Light Rain,20,2013-03-31 17:45:00
12:53 PM,55.0,52.0,89,29.96,10.0,NNE,11.5,-,0.11,,Overcast,20,2013-03-31 17:53:00
1:53 PM,57.0,52.0,83,29.91,10.0,East,4.6,-,N/A,,Scattered Clouds,100,2013-03-31 18:53:00
2:53 PM,60.1,50.0,69,29.90,10.0,East,4.6,-,N/A,,Mostly Cloudy,90,2013-03-31 19:53:00
3:53 PM,60.1,48.9,67,29.91,10.0,Calm,Calm,-,N/A,,Clear,0,2013-03-31 20:53:00
4:53 PM,61.0,48.9,64,29.89,10.0,Calm,Calm,-,N/A,,Clear,0,2013-03-31 21:53:00
5:53 PM,63.0,50.0,63,29.89,10.0,North,3.5,-,N/A,,Clear,10,2013-03-31 22:53:00
6:53 PM,59.0,48.0,67,29.90,10.0,Calm,Calm,-,N/A,,Clear,0,2013-03-31 23:53:00
7:53 PM,54.0,46.9,77,29.91,10.0,Calm,Calm,-,N/A,,Clear,0,2013-04-01 00:53:00
8:53 PM,48.9,46.0,90,29.92,10.0,SSW,3.5,-,N/A,,Clear,200,2013-04-01 01:53:00
9:53 PM,46.9,46.0,97,29.93,7.0,South,3.5,-,N/A,,Clear,190,2013-04-01 02:53:00
10:08 PM,46.4,44.6,93,29.93,1.8,South,3.5,-,N/A,,Clear,190,2013-04-01 03:08:00
10:43 PM,46.4,44.6,93,29.93,3.0,SSW,4.6,-,N/A,,Clear,210,2013-04-01 03:43:00
10:48 PM,44.6,44.6,100,29.93,1.8,SSW,3.5,-,N/A,,Clear,210,2013-04-01 03:48:00
10:53 PM,45.0,44.1,97,29.94,0.8,Calm,Calm,-,N/A,,Clear,0,2013-04-01 03:53:00
10:55 PM,42.8,42.8,100,29.93,0.8,Calm,Calm,-,N/A,,Mist,0,2013-04-01 03:55:00
11:07 PM,42.8,42.8,100,29.94,1.5,Calm,Calm,-,N/A,,Partly Cloudy,0,2013-04-01 04:07:00
11:10 PM,42.8,42.8,100,29.94,3.0,Calm,Calm,-,N/A,,Partly Cloudy,0,2013-04-01 04:10:00
11:25 PM,42.8,42.8,100,29.94,1.0,Calm,Calm,-,N/A,,Mist,0,2013-04-01 04:25:00
11:32 PM,42.8,42.8,100,29.94,0.5,Calm,Calm,-,N/A,Fog,Fog,0,2013-04-01 04:32:00
11:53 PM,42.1,41.0,96,29.94,0.5,Calm,Calm,-,N/A,Fog,Fog,0,2013-04-01 04:53:00